Powrót do katalogu

USA 314

AktywnyMilitariaSSO
NORAD 48247·PAYLOAD·🇺🇸 United States

Wystrzelony Apr 26, 2021 z Vandenberg Space Force Base

Loading…

Następne Przeloty (najbliższe 24 godziny)

TLE

NieaktualneSource: Mike McCants

Epoka: Aug 22, 2026, 23:23 UTC

1 48247U 21032A   26234.97495525 0.00000050  00000-0  67998-5 0    08
2 48247  98.0205 349.5991 0157010   4.1627 355.8371 14.70576598    09

Śledź USA 314 w czasie rzeczywistym z AllMySat

Download on the App Store